Weather History for Pinedale, WY

Change the Weather History Date:

Thursday, October 10, 2013

  Actual Average (KBPI) Record (KBPI)
Temperature  
Mean Temperature 38 °F 41 °F  
Max Temperature 44 °F 58 °F 77 °F (1996)
Min Temperature 32 °F 23 °F 11 °F (2009)
Degree Days  
Heating Degree Days 27 24  
Month to date heating degree days 227  
Since 1 July heating degree days 978  
Cooling Degree Days 0 0  
Month to date cooling degree days 0  
Year to date cooling degree days 35  
Moisture  
Dew Point 34 °F    
Average Humidity 87    
Maximum Humidity 100    
Minimum Humidity 70    
Precipitation  
Precipitation 0.00 in 0.02 in 0.12 in (2008)
Month to date precipitation 0.22  
Year to date precipitation 5.66  
Sea Level Pressure  
Sea Level Pressure 29.80 in    
Wind  
Wind Speed 5 mph (WNW)    
Max Wind Speed 21 mph    
Max Gust Speed 25 mph    
Visibility 10 miles    
Events Rain    
T = Trace of Precipitation, MM = Missing Value Source: NWS Daily Summary

Daily Weather History Graph

Daily Weather History Graph

Search for Another Location

Airport:

Trip Planner

Search our weather history database for the weather conditions in past years. The results will help you decide how hot, cold, wet, or windy it might be!

Date:

Astronomy

Oct. 10, 2013 Rise Set
Actual Time 7:27 AM MDT 6:44 PM MDT
Civil Twilight 6:58 AM MDT 7:12 PM MDT
Nautical Twilight 6:25 AM MDT 7:45 PM MDT
Astronomical Twilight 5:53 AM MDT 8:18 PM MDT
Moon 1:26 PM MDT (10/10) 11:21 PM MDT (10/10)
Length of Visible Light 12h 14m
Length of Day
11h 17m
Waxing Crescent, 36% of the Moon is Illuminated
Oct 10
Waxing Crescent
Oct 11
First Quarter
Oct 18
Full
Oct 26
Last Quarter
Nov 3
New

Hourly Weather History & Observations

Time (MDT) Temp. Windchill Dew Point Humidity Pressure Visibility Wind Dir Wind Speed Gust Speed Precip Events Conditions
12:15 AM 35.6 °F 30.7 °F 32.0 °F 87% 29.91 in 10.0 mi WNW 5.8 mph - N/A   Clear
12:35 AM 33.8 °F 26.4 °F 32.0 °F 93% 29.90 in 10.0 mi WNW 9.2 mph - N/A   Clear
12:55 AM 33.8 °F 27.7 °F 32.0 °F 93% 29.90 in 10.0 mi NW 6.9 mph - N/A   Clear
1:15 AM 32.0 °F 24.8 °F 32.0 °F 100% 29.89 in 10.0 mi WNW 8.1 mph - N/A   Clear
1:35 AM 32.0 °F 24.8 °F 32.0 °F 100% 29.89 in 10.0 mi WNW 8.1 mph - N/A   Clear
1:55 AM 32.0 °F 24.8 °F 30.2 °F 93% 29.88 in 10.0 mi WNW 8.1 mph - N/A   Clear
2:15 AM 32.0 °F 27.5 °F 32.0 °F 100% 29.89 in 10.0 mi WNW 4.6 mph - N/A   Scattered Clouds
2:35 AM 33.8 °F 27.0 °F 32.0 °F 93% 29.88 in 10.0 mi NNW 8.1 mph - N/A   Scattered Clouds
2:55 AM 33.8 °F 29.6 °F 32.0 °F 93% 29.88 in 10.0 mi West 4.6 mph - N/A   Clear
3:15 AM 33.8 °F 29.6 °F 32.0 °F 93% 29.87 in 10.0 mi NW 4.6 mph - N/A   Mostly Cloudy
3:35 AM 32.0 °F 27.5 °F 32.0 °F 100% 29.87 in 10.0 mi NW 4.6 mph - N/A   Mostly Cloudy
3:55 AM 33.8 °F - 32.0 °F 93% 29.87 in 10.0 mi Calm Calm - N/A   Mostly Cloudy
4:15 AM 33.8 °F 27.7 °F 32.0 °F 93% 29.86 in 10.0 mi NNW 6.9 mph - N/A   Overcast
4:35 AM 33.8 °F - 32.0 °F 93% 29.87 in 10.0 mi Calm Calm - N/A   Scattered Clouds
4:55 AM 33.8 °F - 32.0 °F 93% 29.86 in 10.0 mi Calm Calm - N/A   Mostly Cloudy
5:15 AM 33.8 °F - 32.0 °F 93% 29.85 in 10.0 mi Calm Calm - N/A   Scattered Clouds
5:35 AM 33.8 °F 29.6 °F 32.0 °F 93% 29.85 in 10.0 mi NW 4.6 mph - N/A   Scattered Clouds
5:55 AM 32.0 °F 26.4 °F 32.0 °F 100% 29.84 in 10.0 mi West 5.8 mph - N/A   Scattered Clouds
6:15 AM 32.0 °F 27.5 °F 32.0 °F 100% 29.83 in 10.0 mi NW 4.6 mph - N/A   Scattered Clouds
6:35 AM 32.0 °F 28.7 °F 32.0 °F 100% 29.83 in 10.0 mi WNW 3.5 mph - N/A   Scattered Clouds
6:55 AM 32.0 °F 27.5 °F 32.0 °F 100% 29.82 in 10.0 mi WNW 4.6 mph - N/A   Clear
7:15 AM 32.0 °F - 32.0 °F 100% 29.82 in 10.0 mi Calm Calm - N/A   Clear
7:35 AM 32.0 °F - 32.0 °F 100% 29.83 in 10.0 mi Calm Calm - N/A   Mostly Cloudy
7:55 AM 32.0 °F 27.5 °F 32.0 °F 100% 29.82 in 10.0 mi West 4.6 mph - N/A   Overcast
8:15 AM 32.0 °F 27.5 °F 32.0 °F 100% 29.82 in 10.0 mi West 4.6 mph - N/A   Overcast
8:35 AM 33.8 °F 30.8 °F 32.0 °F 93% 29.83 in 10.0 mi NW 3.5 mph - N/A   Overcast
8:55 AM 33.8 °F - 32.0 °F 93% 29.83 in 10.0 mi Calm Calm - N/A   Overcast
9:15 AM 35.6 °F - 33.8 °F 93% 29.83 in 10.0 mi Calm Calm - N/A   Overcast
9:35 AM 35.6 °F 31.7 °F 33.8 °F 93% 29.83 in 10.0 mi West 4.6 mph - N/A Rain Light Rain
9:55 AM 35.6 °F - 33.8 °F 93% 29.82 in 10.0 mi Calm Calm - N/A   Mostly Cloudy
10:15 AM 37.4 °F - 35.6 °F 93% 29.82 in 10.0 mi Calm Calm - N/A   Clear
10:35 AM 39.2 °F - 33.8 °F 81% 29.81 in 10.0 mi Calm Calm - N/A   Clear
10:55 AM 41.0 °F - 33.8 °F 76% 29.80 in 10.0 mi Calm Calm - N/A   Mostly Cloudy
11:15 AM 42.8 °F 39.3 °F 35.6 °F 76% 29.79 in 10.0 mi SSE 5.8 mph - N/A   Mostly Cloudy
11:35 AM 42.8 °F 40.1 °F 33.8 °F 70% 29.79 in 10.0 mi SSE 4.6 mph - N/A   Overcast
11:55 AM 42.8 °F - 33.8 °F 70% 29.79 in 10.0 mi Calm Calm - N/A Rain Rain
12:15 PM 42.8 °F 41.1 °F 33.8 °F 70% 29.79 in 10.0 mi South 3.5 mph - N/A   Drizzle
12:35 PM 42.8 °F - 35.6 °F 76% 29.79 in 10.0 mi Calm Calm - N/A   Light Drizzle
12:55 PM 42.8 °F - 35.6 °F 76% 29.77 in 10.0 mi Calm Calm - N/A   Light Drizzle
1:15 PM 41.0 °F 38.0 °F 35.6 °F 81% 29.76 in 7.0 mi WSW 4.6 mph - N/A Rain Light Rain
1:35 PM 41.0 °F 36.4 °F 37.4 °F 87% 29.75 in 5.0 mi West 6.9 mph - N/A Rain Light Rain
1:55 PM 41.0 °F 39.0 °F 37.4 °F 87% 29.74 in 7.0 mi NW 3.5 mph - N/A   Drizzle
2:15 PM 41.0 °F 38.0 °F 37.4 °F 87% 29.75 in 10.0 mi NW 4.6 mph - N/A   Drizzle
2:35 PM 42.8 °F 40.1 °F 37.4 °F 81% 29.74 in 10.0 mi WNW 4.6 mph - N/A   Overcast
2:55 PM 42.8 °F - 35.6 °F 76% 29.74 in 10.0 mi Calm Calm - N/A   Overcast
3:15 PM 42.8 °F 41.1 °F 35.6 °F 76% 29.74 in 10.0 mi NNW 3.5 mph - N/A   Light Drizzle
3:35 PM 44.6 °F 43.1 °F 35.6 °F 71% 29.74 in 10.0 mi NW 3.5 mph - N/A   Overcast
3:55 PM 44.6 °F - 35.6 °F 71% 29.74 in 10.0 mi Calm Calm - N/A   Overcast
4:15 PM 44.6 °F - 35.6 °F 71% 29.73 in 10.0 mi Calm Calm - N/A   Overcast
4:35 PM 44.6 °F 43.1 °F 35.6 °F 71% 29.73 in 10.0 mi North 3.5 mph - N/A   Overcast
4:55 PM 44.6 °F - 35.6 °F 71% 29.73 in 10.0 mi Calm Calm - N/A   Overcast
5:15 PM 44.6 °F 40.7 °F 35.6 °F 71% 29.72 in 10.0 mi NNW 6.9 mph - N/A   Overcast
5:35 PM 44.6 °F - 35.6 °F 71% 29.72 in 10.0 mi Calm Calm - N/A   Overcast
5:55 PM 44.6 °F 42.2 °F 35.6 °F 71% 29.73 in 10.0 mi WNW 4.6 mph - N/A   Overcast
6:15 PM 42.8 °F - 35.6 °F 76% 29.74 in 10.0 mi Calm Calm - N/A   Overcast
6:35 PM 42.8 °F - 35.6 °F 76% 29.74 in 10.0 mi Calm Calm - N/A   Overcast
6:55 PM 42.8 °F - 35.6 °F 76% 29.74 in 10.0 mi Calm Calm - N/A   Overcast
7:15 PM 42.8 °F - 37.4 °F 81% 29.74 in 10.0 mi Calm Calm - N/A Rain Light Rain
7:35 PM 42.8 °F 41.1 °F 37.4 °F 81% 29.74 in 10.0 mi SW 3.5 mph - N/A Rain Light Rain
7:55 PM 41.0 °F - 37.4 °F 87% 29.74 in 10.0 mi Calm Calm - N/A   Light Drizzle
8:15 PM 42.8 °F - 37.4 °F 81% 29.74 in 10.0 mi Calm Calm - N/A   Light Drizzle
8:35 PM 41.0 °F - 39.2 °F 93% 29.75 in 10.0 mi Calm Calm - N/A Rain Light Rain
8:55 PM 41.0 °F 37.1 °F 39.2 °F 93% 29.74 in 10.0 mi West 5.8 mph - N/A Rain Rain
9:15 PM 41.0 °F 36.4 °F 39.2 °F 93% 29.74 in 10.0 mi West 6.9 mph - N/A Rain Rain
9:35 PM 41.0 °F 37.1 °F 37.4 °F 87% 29.75 in 10.0 mi West 5.8 mph - N/A   Overcast
9:55 PM 41.0 °F 36.4 °F 37.4 °F 87% 29.75 in 10.0 mi WNW 6.9 mph - N/A   Overcast
10:15 PM 41.0 °F 33.1 °F 37.4 °F 87% 29.75 in 10.0 mi WNW 15.0 mph 18.4 mph N/A   Overcast
10:35 PM 39.2 °F 29.3 °F 35.6 °F 87% 29.74 in 10.0 mi WNW 20.7 mph 25.3 mph N/A   Mostly Cloudy
10:55 PM 39.2 °F 30.2 °F 35.6 °F 87% 29.75 in 10.0 mi WNW 17.3 mph - N/A   Mostly Cloudy
11:15 PM 39.2 °F 29.6 °F 35.6 °F 87% 29.75 in 10.0 mi WNW 19.6 mph 24.2 mph N/A   Overcast
11:35 PM 39.2 °F 29.8 °F 35.6 °F 87% 29.75 in 10.0 mi WNW 18.4 mph 23.0 mph N/A   Overcast
11:55 PM 37.4 °F 27.5 °F 35.6 °F 93% 29.77 in 10.0 mi WNW 18.4 mph - N/A   Mostly Cloudy